Content
SEND FEEDBACK

Daily
Averages
Monthly
Summary
Mexico

PUEBLA, PUEBLA


Home > North America > Mexico > Puebla
Elevation: 7104 feet     Latitude: 19 02N     Longitude: 098 12W

WEATHER
 
SELECT A DAY
Number of Records: 121,093;   Date Range: 1/1/95 - 8/10/14
 
SHARE

PRINT THIS DATA

[ ← Previous Day ]
WEATHER ALMANAC - FEBRUARY 5, 2013
[ Next Day → ]
[ °C ]   °F
Weather ElementAverageHighLow
Temperature63 °F77 °F (2:40 pm)48.2 °F (1:40 am)
Dewpoint39.3 °F45 °F (2:50 am)33 °F (8:50 pm)
Humidity41.3 %82 % (1:40 am)16 % (2:40 pm)
Barometer30.13 in30.37 in (9:40 am)29.68 in (5:40 pm)
Wind Speed5.4 mph16.1 mph (3:52 pm)
Weather ElementAverage
Visibility7.6 mi
Wind DirectionSSE (159.1 °)

Weather ElementTotal
Precipitation---
Heating Degree Days2.4 (Base 65)
Growing Degree Days12.6 (Base 50)
Averaged from 25 records on February 5, 2013
WEATHER CONDITIONS BREAKOUT
WIND DIRECTION BREAKOUT
WEATHER BY HOUR - FEBRUARY 5, 2013
[ °C ]   °F
Local TimeTemperatureDewpointHumidityBarometerVisibilityWind DirectionWind SpeedGust SpeedPrecipitationEventsConditions
1:40 AM48.2 °F42.8 °F82 %30.30 in9.0 miNNW (330°)6.9 mphMostly Cloudy
2:50 AM53.0 °F45.0 °F67 %29.81 in3.0 miCalmScattered Clouds
5:50 AM49.0 °F42.0 °F67 %29.89 in3.0 miCalm
8:50 AM54.0 °F43.0 °F55 %29.99 in6.0 miNE (50°)2.2 mphHaze
8:54 AM53.6 °F41.0 °F62 %30.35 in10.0 miNNW (330°)5.8 mphClear
9:40 AM60.8 °F41.0 °F48 %30.37 in10.0 miNorth (10°)5.8 mphClear
10:43 AM68.0 °F41.0 °F37 %30.36 in8.0 miSSE (160°)6.9 mphClear
11:44 AM69.8 °F39.2 °F33 %30.33 in8.0 miSE (140°)3.5 mphClear
11:50 AM72.0 °F42.0 °F22 %29.96 in12.0 miSouth (180°)2.2 mphScattered Clouds
12:43 PM71.6 °F37.4 °F29 %30.30 in8.0 miESE (110°)9.2 mphClear
1:41 PM73.4 °F39.2 °F29 %30.26 in8.0 miESE (120°)6.9 mphPartly Cloudy
2:40 PM77.0 °F40.0 °F16 %29.79 in12.0 miSSE (160°)4.5 mphHaze
2:43 PM73.4 °F41.0 °F31 %30.23 in8.0 miSSW (200°)12.7 mphPartly Cloudy
3:52 PM73.4 °F39.2 °F29 %30.21 in8.0 miSouth (190°)16.1 mphPartly Cloudy
4:41 PM73.4 °F39.2 °F29 %30.21 in8.0 miSSW (200°)8.1 mphMostly Cloudy
5:40 PM73.0 °F37.0 °F17 %29.68 in6.0 miSSE (160°)2.2 mphHaze
5:41 PM69.8 °F37.4 °F31 %30.22 in8.0 miSouth (180°)12.7 mphMostly Cloudy
6:46 PM62.6 °F35.6 °F37 %30.23 in8.0 miSouth (190°)6.9 mphScattered Clouds
7:48 PM57.2 °F37.4 °F48 %30.26 in8.0 miESE (120°)6.9 mphClear
8:43 PM57.2 °F39.2 °F51 %30.27 in8.0 miCalmClear
8:50 PM63.0 °F33.0 °F21 %29.68 in3.0 miCalm
9:47 PM55.4 °F39.2 °F54 %30.29 in8.0 miNNW (330°)8.1 mphClear
10:52 PM53.6 °F39.2 °F58 %30.31 in8.0 miCalmClear
11:40 PM53.6 °F37.4 °F54 %30.31 in8.0 miNW (320°)4.6 mphClear
11:50 PM59.0 °F34.0 °F26 %29.74 in3.0 miNNE (20°)2.2 mph
Hourly data recorded from MMPB, located miles away from Puebla, Puebla







STORIES FROM OUR PARTNERS